Mytilene, Greece

12:02 PM EET on February 20, 2017 (GMT +0200)
Odysseas Elytis

Weather History for LGMT - May, 2013

Change the Weather History Date:

Tuesday, May 28, 2013

  Actual Average Record
Temperature  
Mean Temperature 70 °F -  
Max Temperature 82 °F 82 °F 89 °F (2014)
Min Temperature 58 °F 66 °F 55 °F (2004)
Cooling Degree Days 5    
Growing Degree Days 20 (Base 50)    
Moisture  
Dew Point 50 °F    
Average Humidity 47    
Maximum Humidity 68    
Minimum Humidity 20    
Precipitation  
Precipitation 0.00 in 0.01 in - ()
Sea Level Pressure  
Sea Level Pressure 29.96 in    
Wind  
Wind Speed 3 mph ()    
Max Wind Speed 10 mph    
Max Gust Speed -    
Visibility 6.6 miles    
Events      
Averages and records for this station are not official NWS values.
T = Trace of Precipitation, MM = Missing Value Source: Averaged Metar Reports

Daily Weather History Graph

Daily Weather History Graph

Search for Another Location

Airport or City:

Trip Planner

Search our weather history database for the weather conditions in past years. The results will help you decide how hot, cold, wet, or windy it might be!

Date:

Astronomy

May. 28, 2013 Rise Set
Actual Time 5:51 AM EEST 8:30 PM EEST
Civil Twilight 5:20 AM EEST 9:01 PM EEST
Nautical Twilight 4:41 AM EEST 9:40 PM EEST
Astronomical Twilight 3:57 AM EEST 10:24 PM EEST
Moon 11:41 PM EEST (5/28) 9:16 AM EEST (5/28)
Length of Visible Light 15h 41m
Length of Day
14h 39m
Waning Gibbous, 85% of the Moon is Illuminated
May 28
Waning Gibbous
May 31
Last Quarter
Jun 8
New
Jun 16
First Quarter
Jun 23
Full

Hourly Weather History & Observations

Time (EEST) Temp. Dew Point Humidity Pressure Visibility Wind Dir Wind Speed Gust Speed Precip Events Conditions
12:50 AM 62.6 °F 48.2 °F 59% 29.98 in - Calm Calm - N/A   Clear
1:50 AM 62.6 °F 50.0 °F 63% 29.98 in - Calm Calm - N/A   Clear
2:50 AM 62.6 °F 48.2 °F 59% 29.98 in - Calm Calm - N/A   Clear
3:00 AM 63 °F 49 °F 50% 29.99 in 6 mi Calm Calm - -  
3:50 AM 60.8 °F 50.0 °F 68% 29.98 in - Calm Calm - N/A   Clear
4:20 AM 60.8 °F 50.0 °F 68% 29.98 in - Calm Calm - N/A   Clear
4:50 AM 60.8 °F 50.0 °F 68% 29.98 in - Calm Calm - N/A   Clear
5:20 AM 60.8 °F 50.0 °F 68% 29.98 in - Calm Calm - N/A   Clear
5:50 AM 60.8 °F 46.4 °F 59% 29.98 in - WSW 5.8 mph - N/A   Clear
6:20 AM 60.8 °F 46.4 °F 59% 29.98 in - WSW 5.8 mph - N/A   Clear
6:50 AM 62.6 °F 48.2 °F 59% 29.98 in - Calm Calm - N/A   Clear
7:20 AM 62.6 °F 48.2 °F 59% 29.98 in - Calm Calm - N/A   Clear
7:50 AM 64.4 °F 53.6 °F 68% 29.98 in - Calm Calm - N/A   Clear
8:20 AM 64.4 °F 53.6 °F 68% 29.98 in - Calm Calm - N/A   Clear
8:50 AM 68.0 °F 53.6 °F 60% 29.98 in - Calm Calm - N/A   Clear
9:00 AM 68 °F 54 °F 52% 29.99 in 6 mi Calm Calm - -  
9:20 AM 68.0 °F 53.6 °F 60% 29.98 in - Variable 3.5 mph - N/A   Clear
9:50 AM 71.6 °F 57.2 °F 60% 29.98 in - NNE 4.6 mph - N/A   Clear
10:20 AM 73.4 °F 57.2 °F 57% 29.98 in - NNE 4.6 mph - N/A   Clear
10:50 AM 75.2 °F 57.2 °F 53% 29.98 in - Variable 3.5 mph - N/A   Clear
11:20 AM 75.2 °F 57.2 °F 53% 29.98 in - NNE 6.9 mph - N/A   Clear
11:50 AM 75.2 °F 55.4 °F 50% 29.98 in - ENE 6.9 mph - N/A   Clear
12:20 PM 75.2 °F 55.4 °F 50% 29.98 in - ENE 5.8 mph - N/A   Clear
12:50 PM 77.0 °F 50.0 °F 39% 29.98 in - ENE 6.9 mph - N/A   Clear
1:20 PM 77.0 °F 50.0 °F 39% 29.98 in - ENE 5.8 mph - N/A   Clear
1:50 PM 78.8 °F 46.4 °F 32% 29.98 in - NE 6.9 mph - N/A   Clear
2:20 PM 80.6 °F 46.4 °F 30% 29.98 in - ENE 8.1 mph - N/A   Clear
2:50 PM 80.6 °F 46.4 °F 30% 29.95 in - ESE 10.4 mph - N/A   Clear
3:00 PM 81 °F 47 °F 20% 29.97 in 9 mi ESE 10.4 mph - -   Clear
3:20 PM 80.6 °F 46.4 °F 30% 29.95 in - ESE 10.4 mph - N/A   Clear
3:50 PM 82.4 °F 46.4 °F 28% 29.95 in - ESE 8.1 mph - N/A   Clear
4:20 PM 82.4 °F 48.2 °F 30% 29.95 in - ESE 8.1 mph - N/A   Clear
4:50 PM 82.4 °F 50.0 °F 32% 29.95 in - ESE 5.8 mph - N/A   Clear
5:20 PM 82.4 °F 50.0 °F 32% 29.95 in - ESE 5.8 mph - N/A   Clear
5:50 PM 80.6 °F 51.8 °F 37% 29.95 in - ESE 4.6 mph - N/A   Clear
6:20 PM 80.6 °F 51.8 °F 37% 29.95 in - ESE 3.5 mph - N/A   Clear
6:50 PM 78.8 °F 51.8 °F 39% 29.95 in - Variable 3.5 mph - N/A   Clear
7:20 PM 77.0 °F 51.8 °F 41% 29.92 in - Variable 3.5 mph - N/A   Clear
7:50 PM 75.2 °F 53.6 °F 47% 29.92 in - ESE 3.5 mph - N/A   Clear
8:20 PM 75.2 °F 53.6 °F 47% 29.92 in 6.2 mi ESE 3.5 mph - N/A   Mostly Cloudy
8:50 PM 73.4 °F 48.2 °F 41% 29.92 in 6.2 mi SW 3.5 mph - N/A   Mostly Cloudy
9:00 PM 73 °F 48 °F 30% 29.93 in 9 mi SW 3.5 mph - -   Scattered Clouds
9:20 PM 73.4 °F 48.2 °F 41% 29.92 in 6.2 mi SW 3.5 mph - N/A   Mostly Cloudy
9:50 PM 73.4 °F 48.2 °F 41% 29.92 in 6.2 mi Calm Calm - N/A   Mostly Cloudy
10:20 PM 73.4 °F 48.2 °F 41% 29.92 in 6.2 mi WSW 5.8 mph - N/A   Mostly Cloudy
10:50 PM 71.6 °F 44.6 °F 38% 29.92 in 6.2 mi Variable 3.5 mph - N/A   Mostly Cloudy
11:20 PM 69.8 °F 41.0 °F 35% 29.92 in 6.2 mi Variable 3.5 mph - N/A   Mostly Cloudy
11:50 PM 71.6 °F 42.8 °F 35% 29.89 in 6.2 mi Calm Calm - N/A   Mostly Cloudy